ICEYE-X40

Last updated on Mon Sep 16 2024 00:02:04 GMT+0000 (Coordinated Universal Time)

1 60549U 24149CK 24258.92293041 .00009412 00000+0 90931-3 0 9995 2 60549 97.7438 333.9432 0006430 68.2313 291.9590 14.93019368 4336
UTC large
Height (km)
Speed (km/s)
/
Latitude / Longitude
Inclination (degrees)
Orbital Period (minutes)
Azimuth
Elevation
Range (km)
Doppler Factor

Next 0 passes for location: London (51.5072 / 0.1276)

Sorry there are no passes over London.